Regional Weather Roundup
Issued by NWS

Home | Current Version | Previous Version | Text Only | Print | Product List | Glossary Off
Versions: 1 2 3 4 5 6 7 8 9 10 11 12 13 14 15 16 17 18 19 20 21 22 23 24 25 26 27 28 29 30 31 32 33 34 35 36 37 38 39 40 41 42 43 44

000
ASUS45 KBOI 252210
RWRID
WEATHER ROUNDUP FOR IDAHO
NATIONAL WEATHER SERVICE BOISE ID
300 PM MST THU DEC 25 2014

NOTE: "FAIR" INDICATES FEW OR NO CLOUDS BELOW 12000 FEET
WITH NO SIGNIFICANT WEATHER AND/OR OBSTRUCTIONS TO VISIBILITY

IDZ012-014-252300-
SOUTHWEST IDAHO


CITY           SKY/WX    TMP DP  RH WIND       PRES   REMARKS
BOISE          SUNNY     36  23  59 NW22      29.93S WCI  25
CALDWELL       SUNNY     37  23  56 SW20      30.00R WCI  27
MOUNTAIN HOME  MOSUNNY   35  26  69 NW31G39   29.87R WCI  21
$$

IDZ016-017-252300-
SOUTHCENTRAL IDAHO


CITY           SKY/WX    TMP DP  RH WIND       PRES   REMARKS
JEROME         CLOUDY    30  24  78 SW17      29.79R WCI  18
TWIN FALLS     CLOUDY    31  22  69 W30G39    29.79R WCI  16
$$

IDZ019>023-252300-
SOUTHEAST IDAHO


CITY           SKY/WX    TMP DP  RH WIND       PRES   REMARKS
IDAHO FALLS    CLOUDY    28  19  69 N21       29.70R WCI  15
POCATELLO      PTSUNNY   30  20  66 N18       29.75R WCI  18
REXBURG        CLOUDY    27  16  63 N20G26    29.70R WCI  13
$$

IDZ006-010-011-018-031-032-252300-
CENTRAL IDAHO MOUNTAINS


CITY           SKY/WX    TMP DP  RH WIND       PRES   REMARKS
MCCALL         CLOUDY    26  15  63 N10G21    29.90R WCI  16
HAILEY         MOSUNNY   34  12  40 NW13G20   29.74R WCI  25
STANLEY          N/A     26  11  52 NW8G18    29.80R WCI  18
SALMON         MOSUNNY   30  18  59 N10       29.88R WCI  21
CHALLIS        PTSUNNY   27  16  63 NE9       29.84R WCI  18
$$

IDZ002-004-006-007-026-252300-
NORTHERN IDAHO


CITY           SKY/WX    TMP DP  RH WIND       PRES   REMARKS
LEWISTON       SUNNY     43  28  55 NW10      30.07S
LOWELL           N/A     37  34  89 CALM      30.10R
COEUR D`ALENE  PTSUNNY   30  30 100 SW3       30.03S
MULLAN PASS    CLOUDY    22  17  81 VRB3      29.87R HAZE
$$



USA.gov is the U.S. government's official web portal to all federal, state and local government web resources and services.